DAL845 ZHHH-ZBAD

Flight info

Callsign DAL845
Flight time 1h 39m
Altitude 39100
Route BENBI2E BENBI W56 ORODO/K0880S1160 W62 KARVU/K0874S1190 W62 IGDID/K0874S1220 W62 TEKIL G212 BELAX BELAX5L
Aircraft B764/H-SDE3FGHIM3RWXY/LB1

Departure

Time 2026-05-05 10:18
Airport Wuhan Tianhe International Airport (ZHHH)

Arrival

Time 2026-05-05 11:57
Airport Beijing Daxing International Airport (ZBAD)
Time Latitude Longitude Altitude Speed Heading
2026-05-05 09:49 30.77461 114.21724 119 ft 0 kts 221°
2026-05-05 10:03 30.77465 114.21728 118 ft 2 kts 221°
2026-05-05 10:03 30.77476 114.21740 118 ft 2 kts 221°
2026-05-05 10:03 30.77488 114.21751 118 ft 2 kts 221°
2026-05-05 10:03 30.77495 114.21758 118 ft 2 kts 219°
2026-05-05 10:04 30.77508 114.21767 118 ft 2 kts 193°
2026-05-05 10:04 30.77523 114.21768 118 ft 2 kts 174°
2026-05-05 10:04 30.77537 114.21764 118 ft 2 kts 155°
2026-05-05 10:04 30.77550 114.21755 118 ft 1 kts 135°
2026-05-05 10:05 30.77554 114.21750 118 ft 1 kts 130°
2026-05-05 10:05 30.77555 114.21748 118 ft 0 kts 130°
2026-05-05 10:07 30.77555 114.21749 118 ft 0 kts 130°
2026-05-05 10:07 30.77554 114.21749 118 ft 0 kts 130°
2026-05-05 10:07 30.77547 114.21760 118 ft 4 kts 130°
2026-05-05 10:08 30.77527 114.21787 118 ft 3 kts 130°
2026-05-05 10:08 30.77499 114.21823 118 ft 9 kts 131°
2026-05-05 10:08 30.77453 114.21883 118 ft 9 kts 131°
2026-05-05 10:08 30.77417 114.21930 118 ft 6 kts 131°
2026-05-05 10:09 30.77392 114.21963 118 ft 4 kts 131°
2026-05-05 10:09 30.77359 114.22005 118 ft 8 kts 132°
2026-05-05 10:09 30.77320 114.22057 118 ft 8 kts 131°
2026-05-05 10:09 30.77283 114.22105 118 ft 8 kts 131°
2026-05-05 10:10 30.77246 114.22154 118 ft 8 kts 131°
2026-05-05 10:10 30.77209 114.22203 118 ft 7 kts 131°
2026-05-05 10:10 30.77192 114.22235 118 ft 3 kts 95°
2026-05-05 10:10 30.77207 114.22279 118 ft 10 kts 52°
2026-05-05 10:11 30.77276 114.22356 118 ft 13 kts 41°
2026-05-05 10:11 30.77342 114.22424 118 ft 11 kts 40°
2026-05-05 10:11 30.77395 114.22476 118 ft 8 kts 40°
2026-05-05 10:11 30.77433 114.22515 118 ft 7 kts 42°
2026-05-05 10:12 30.77478 114.22562 118 ft 8 kts 42°
2026-05-05 10:12 30.77519 114.22604 118 ft 7 kts 42°
2026-05-05 10:12 30.77559 114.22646 118 ft 9 kts 41°
2026-05-05 10:12 30.77614 114.22703 118 ft 11 kts 41°
2026-05-05 10:13 30.77673 114.22763 118 ft 10 kts 41°
2026-05-05 10:13 30.77721 114.22813 118 ft 8 kts 41°
2026-05-05 10:13 30.77766 114.22858 118 ft 8 kts 41°
2026-05-05 10:13 30.77813 114.22907 118 ft 11 kts 40°
2026-05-05 10:14 30.77892 114.22984 118 ft 15 kts 40°
2026-05-05 10:14 30.77966 114.23059 118 ft 12 kts 41°
2026-05-05 10:14 30.78026 114.23119 118 ft 9 kts 42°
2026-05-05 10:14 30.78079 114.23176 118 ft 12 kts 42°
2026-05-05 10:15 30.78149 114.23250 118 ft 15 kts 42°
2026-05-05 10:15 30.78232 114.23337 118 ft 15 kts 42°
2026-05-05 10:15 30.78274 114.23428 118 ft 10 kts 101°
2026-05-05 10:15 30.78239 114.23491 118 ft 7 kts 131°
2026-05-05 10:16 30.78206 114.23524 118 ft 4 kts 156°
2026-05-05 10:16 30.78171 114.23528 118 ft 6 kts 189°
2026-05-05 10:16 30.78136 114.23498 118 ft 6 kts 222°
2026-05-05 10:16 30.78033 114.23394 118 ft 41 kts 219°
2026-05-05 10:17 30.77693 114.23048 119 ft 87 kts 221°
2026-05-05 10:17 30.77126 114.22472 119 ft 127 kts 222°
2026-05-05 10:17 30.76375 114.21700 120 ft 162 kts 221°
2026-05-05 10:17 30.75497 114.20773 261 ft 177 kts 221°
2026-05-05 10:18 30.74588 114.19788 713 ft 175 kts 219°
2026-05-05 10:18 30.73703 114.18914 1254 ft 167 kts 217°
2026-05-05 10:18 30.72800 114.17999 1534 ft 176 kts 221°
2026-05-05 10:18 30.71902 114.17049 1997 ft 173 kts 218°
2026-05-05 10:19 30.70987 114.16140 2329 ft 178 kts 218°
2026-05-05 10:19 30.70046 114.15166 2690 ft 181 kts 220°
2026-05-05 10:19 30.69134 114.14183 3093 ft 179 kts 218°
2026-05-05 10:19 30.68194 114.13279 3122 ft 192 kts 217°
2026-05-05 10:20 30.67100 114.12245 3177 ft 206 kts 217°
2026-05-05 10:20 30.65977 114.11138 3303 ft 223 kts 220°
2026-05-05 10:20 30.64773 114.09889 3534 ft 237 kts 220°
2026-05-05 10:20 30.63490 114.08564 3860 ft 248 kts 220°
2026-05-05 10:21 30.62257 114.07294 4667 ft 238 kts 219°
2026-05-05 10:21 30.61002 114.06011 5128 ft 243 kts 219°
2026-05-05 10:21 30.59730 114.04713 5697 ft 244 kts 219°
2026-05-05 10:21 30.58453 114.03414 6201 ft 247 kts 219°
2026-05-05 10:22 30.57374 114.01859 6671 ft 254 kts 245°
2026-05-05 10:22 30.57093 113.99853 7160 ft 260 kts 276°
2026-05-05 10:22 30.57745 113.97884 7678 ft 265 kts 306°
2026-05-05 10:22 30.58955 113.96275 8206 ft 266 kts 310°
2026-05-05 10:23 30.60164 113.94680 8768 ft 265 kts 309°
2026-05-05 10:23 30.61377 113.93076 9316 ft 265 kts 310°
2026-05-05 10:23 30.62596 113.91466 9806 ft 266 kts 310°
2026-05-05 10:23 30.63819 113.89853 10339 ft 266 kts 310°
2026-05-05 10:24 30.65044 113.88236 10757 ft 271 kts 310°
2026-05-05 10:24 30.66297 113.86583 11314 ft 269 kts 311°
2026-05-05 10:24 30.67754 113.85172 11405 ft 288 kts 334°
2026-05-05 10:24 30.69758 113.84579 11689 ft 300 kts 357°
2026-05-05 10:25 30.71811 113.84876 12190 ft 305 kts 17°
2026-05-05 10:25 30.73717 113.85989 12698 ft 310 kts 36°
2026-05-05 10:25 30.75243 113.87804 13160 ft 317 kts 51°
2026-05-05 10:25 30.76675 113.89809 13201 ft 337 kts 45°
2026-05-05 10:26 30.78391 113.91831 13258 ft 359 kts 43°
2026-05-05 10:26 30.80241 113.93879 13342 ft 380 kts 41°
2026-05-05 10:26 30.82198 113.95962 13998 ft 383 kts 40°
2026-05-05 10:26 30.84181 113.98037 14664 ft 387 kts 40°
2026-05-05 10:27 30.86213 114.00139 15366 ft 390 kts 39°
2026-05-05 10:27 30.88252 114.02235 16027 ft 393 kts 39°
2026-05-05 10:27 30.90302 114.04336 16676 ft 397 kts 39°
2026-05-05 10:27 30.92377 114.06459 17367 ft 400 kts 39°
2026-05-05 10:28 30.94474 114.08604 18010 ft 404 kts 39°
2026-05-05 10:28 30.96606 114.10785 18751 ft 406 kts 39°
2026-05-05 10:28 30.98720 114.12947 19478 ft 408 kts 38°
2026-05-05 10:28 31.00827 114.15104 20188 ft 409 kts 38°
2026-05-05 10:29 31.02971 114.17298 20761 ft 413 kts 38°
2026-05-05 10:29 31.05149 114.19488 21403 ft 414 kts 35°
2026-05-05 10:29 31.07549 114.21313 21951 ft 413 kts 24°
2026-05-05 10:29 31.10216 114.22610 22608 ft 411 kts 17°
2026-05-05 10:30 31.12892 114.23721 23064 ft 416 kts 18°
2026-05-05 10:30 31.15623 114.24854 23654 ft 417 kts 17°
2026-05-05 10:30 31.18387 114.26000 24238 ft 418 kts 17°
2026-05-05 10:30 31.21114 114.27121 24775 ft 419 kts 17°
2026-05-05 10:31 31.23883 114.28261 25178 ft 422 kts 17°
2026-05-05 10:31 31.26631 114.29391 25651 ft 423 kts 17°
2026-05-05 10:31 31.29417 114.30537 26099 ft 425 kts 17°
2026-05-05 10:31 31.32208 114.31684 26507 ft 426 kts 17°
2026-05-05 10:32 31.35039 114.32712 26862 ft 426 kts 10°
2026-05-05 10:32 31.37982 114.33169 27274 ft 424 kts
2026-05-05 10:32 31.40935 114.33267 27566 ft 427 kts
2026-05-05 10:32 31.43886 114.33379 27930 ft 428 kts
2026-05-05 10:33 31.46858 114.33476 28375 ft 426 kts
2026-05-05 10:33 31.49830 114.33571 28558 ft 430 kts
2026-05-05 10:33 31.52826 114.33663 28886 ft 431 kts
2026-05-05 10:33 31.55817 114.33754 29180 ft 431 kts
2026-05-05 10:34 31.58847 114.33846 29426 ft 433 kts
2026-05-05 10:34 31.61830 114.33935 29738 ft 433 kts 360°
2026-05-05 10:34 31.64851 114.34026 29920 ft 435 kts
2026-05-05 10:34 31.67896 114.34118 30217 ft 435 kts
2026-05-05 10:35 31.70950 114.34209 30477 ft 435 kts
2026-05-05 10:35 31.73945 114.34299 30821 ft 433 kts
2026-05-05 10:35 31.76941 114.34388 31125 ft 429 kts
2026-05-05 10:35 31.79927 114.34477 31093 ft 431 kts
2026-05-05 10:36 31.85906 114.34657 31103 ft 427 kts
2026-05-05 10:36 31.91814 114.34834 31100 ft 427 kts
2026-05-05 10:37 31.97794 114.35014 31097 ft 428 kts
2026-05-05 10:37 32.03701 114.35194 31097 ft 426 kts
2026-05-05 10:38 32.09621 114.35373 31096 ft 426 kts 360°
2026-05-05 10:38 32.15591 114.35554 31101 ft 427 kts
2026-05-05 10:39 32.21517 114.35734 31096 ft 426 kts
2026-05-05 10:39 32.27470 114.36006 31337 ft 426 kts
2026-05-05 10:40 32.30386 114.36284 31693 ft 424 kts
2026-05-05 10:40 32.33357 114.36555 31959 ft 424 kts
2026-05-05 10:40 32.36290 114.36823 32298 ft 422 kts
2026-05-05 10:40 32.39172 114.37086 32661 ft 419 kts
2026-05-05 10:41 32.42094 114.37354 32970 ft 417 kts
2026-05-05 10:41 32.44986 114.37619 33081 ft 411 kts
2026-05-05 10:41 32.50662 114.38138 33095 ft 411 kts
2026-05-05 10:42 32.59260 114.38925 33094 ft 414 kts
2026-05-05 10:43 32.65009 114.39451 33093 ft 415 kts
2026-05-05 10:43 32.70719 114.39983 33081 ft 413 kts
2026-05-05 10:44 32.76434 114.40515 33082 ft 412 kts
2026-05-05 10:44 32.82182 114.41052 33075 ft 413 kts
2026-05-05 10:45 32.87888 114.41583 33077 ft 414 kts
2026-05-05 10:45 32.93621 114.42119 33070 ft 413 kts
2026-05-05 10:46 32.99374 114.42657 33067 ft 412 kts
2026-05-05 10:46 33.05056 114.43188 33057 ft 412 kts
2026-05-05 10:47 33.10781 114.43726 33059 ft 413 kts
2026-05-05 10:47 33.16506 114.44264 33068 ft 412 kts
2026-05-05 10:48 33.22264 114.44805 33077 ft 413 kts
2026-05-05 10:48 33.27964 114.45342 33074 ft 413 kts
2026-05-05 10:49 33.33708 114.45882 33066 ft 412 kts
2026-05-05 10:49 33.39400 114.46417 33064 ft 411 kts
2026-05-05 10:50 33.45098 114.46953 33066 ft 412 kts
2026-05-05 10:50 33.50834 114.47495 33056 ft 412 kts
2026-05-05 10:51 33.56547 114.48034 33055 ft 411 kts
2026-05-05 10:51 33.62257 114.48573 33053 ft 412 kts
2026-05-05 10:52 33.67968 114.49107 33055 ft 412 kts
2026-05-05 10:52 33.73672 114.49640 33051 ft 411 kts
2026-05-05 10:53 33.79385 114.50176 33047 ft 411 kts
2026-05-05 10:53 33.85121 114.50713 33049 ft 412 kts
2026-05-05 10:54 33.90834 114.51251 33049 ft 412 kts
2026-05-05 10:54 33.96502 114.51787 33052 ft 411 kts
2026-05-05 10:55 34.02203 114.52325 33044 ft 410 kts
2026-05-05 10:55 34.07922 114.52866 33045 ft 411 kts
2026-05-05 10:56 34.13590 114.53403 33065 ft 412 kts
2026-05-05 10:56 34.19304 114.53944 33056 ft 413 kts
2026-05-05 10:57 34.25047 114.54491 33051 ft 413 kts
2026-05-05 10:57 34.30756 114.55033 33051 ft 411 kts
2026-05-05 10:58 34.36455 114.55576 33054 ft 412 kts
2026-05-05 10:58 34.42175 114.56120 33046 ft 412 kts
2026-05-05 10:59 34.47887 114.56665 33055 ft 412 kts
2026-05-05 10:59 34.53621 114.57207 33049 ft 413 kts
2026-05-05 11:00 34.59332 114.57750 33056 ft 412 kts
2026-05-05 11:00 34.65068 114.58294 33049 ft 412 kts
2026-05-05 11:01 34.70786 114.58837 33042 ft 413 kts
2026-05-05 11:01 34.76484 114.59381 33031 ft 412 kts
2026-05-05 11:02 34.82225 114.59928 33022 ft 411 kts
2026-05-05 11:02 34.87912 114.60471 33021 ft 413 kts
2026-05-05 11:03 34.93682 114.61023 33019 ft 414 kts
2026-05-05 11:03 34.99391 114.61570 33017 ft 412 kts
2026-05-05 11:04 35.05106 114.62118 33015 ft 412 kts
2026-05-05 11:04 35.10827 114.62667 33015 ft 413 kts
2026-05-05 11:05 35.16557 114.63218 33028 ft 413 kts
2026-05-05 11:05 35.22301 114.63772 33030 ft 413 kts
2026-05-05 11:06 35.27999 114.64321 33026 ft 411 kts
2026-05-05 11:06 35.33720 114.64874 33026 ft 413 kts
2026-05-05 11:07 35.39453 114.65429 33015 ft 413 kts
2026-05-05 11:07 35.45197 114.65984 33015 ft 413 kts
2026-05-05 11:08 35.50929 114.66541 33013 ft 413 kts
2026-05-05 11:08 35.56664 114.67097 33013 ft 414 kts
2026-05-05 11:09 35.62392 114.67655 33006 ft 413 kts
2026-05-05 11:09 35.68085 114.68210 33006 ft 413 kts
2026-05-05 11:10 35.73830 114.68770 33009 ft 413 kts
2026-05-05 11:10 35.79554 114.69330 33007 ft 412 kts
2026-05-05 11:11 35.85260 114.69888 33006 ft 412 kts
2026-05-05 11:11 35.90967 114.70447 32995 ft 412 kts
2026-05-05 11:12 35.96719 114.71010 32984 ft 413 kts
2026-05-05 11:12 36.02426 114.71572 32985 ft 414 kts
2026-05-05 11:13 36.08184 114.72138 32981 ft 412 kts
2026-05-05 11:13 36.13891 114.72696 33001 ft 414 kts
2026-05-05 11:14 36.19644 114.73258 32996 ft 415 kts
2026-05-05 11:14 36.25407 114.73822 33004 ft 414 kts
2026-05-05 11:15 36.31143 114.74394 32996 ft 414 kts
2026-05-05 11:15 36.36877 114.74954 32985 ft 415 kts 359°
2026-05-05 11:16 36.42644 114.74785 32982 ft 413 kts 355°
2026-05-05 11:16 36.48355 114.74531 32982 ft 413 kts 355°
2026-05-05 11:17 36.54099 114.74271 32976 ft 413 kts 355°
2026-05-05 11:17 36.59857 114.74009 32974 ft 413 kts 354°
2026-05-05 11:18 36.65575 114.73749 32971 ft 415 kts 354°
2026-05-05 11:18 36.71326 114.73486 32966 ft 414 kts 354°
2026-05-05 11:19 36.77107 114.73696 32977 ft 420 kts
2026-05-05 11:19 36.82660 114.76160 32971 ft 431 kts 18°
2026-05-05 11:20 36.88152 114.79292 32957 ft 433 kts 18°
2026-05-05 11:20 36.93604 114.82440 32954 ft 433 kts 19°
2026-05-05 11:21 36.99053 114.85606 32954 ft 434 kts 18°
2026-05-05 11:21 37.04521 114.88792 32939 ft 434 kts 19°
2026-05-05 11:22 37.09994 114.91992 32937 ft 436 kts 19°
2026-05-05 11:22 37.15519 114.95227 32940 ft 436 kts 19°
2026-05-05 11:23 37.21007 114.98447 32948 ft 435 kts 18°
2026-05-05 11:23 37.26483 115.01665 32949 ft 435 kts 19°
2026-05-05 11:24 37.31931 115.04871 32939 ft 436 kts 18°
2026-05-05 11:24 37.37441 115.08118 32940 ft 437 kts 19°
2026-05-05 11:25 37.42933 115.11360 32940 ft 439 kts 19°
2026-05-05 11:25 37.48488 115.14646 32938 ft 439 kts 19°
2026-05-05 11:26 37.54000 115.17910 32936 ft 439 kts 18°
2026-05-05 11:26 37.59536 115.21191 32933 ft 440 kts 19°
2026-05-05 11:27 37.65103 115.24496 32935 ft 441 kts 19°
2026-05-05 11:27 37.70636 115.27788 32939 ft 442 kts 19°
2026-05-05 11:28 37.76179 115.31087 32930 ft 442 kts 18°
2026-05-05 11:28 37.81971 115.33122 32944 ft 426 kts 359°
2026-05-05 11:29 37.87798 115.32836 32930 ft 421 kts 351°
2026-05-05 11:29 37.93649 115.32137 32921 ft 422 kts 350°
2026-05-05 11:30 37.99487 115.31366 32917 ft 420 kts 349°
2026-05-05 11:30 38.05275 115.30570 32917 ft 422 kts 349°
2026-05-05 11:31 38.11122 115.29739 32922 ft 422 kts 349°
2026-05-05 11:31 38.16964 115.28881 32931 ft 423 kts 349°
2026-05-05 11:32 38.22791 115.28023 32929 ft 422 kts 349°
2026-05-05 11:32 38.28654 115.27157 32925 ft 424 kts 349°
2026-05-05 11:33 38.34522 115.26289 32933 ft 425 kts 349°
2026-05-05 11:33 38.40371 115.25420 32929 ft 426 kts 349°
2026-05-05 11:34 38.46235 115.24550 32926 ft 424 kts 348°
2026-05-05 11:34 38.52129 115.24067 32937 ft 431 kts 359°
2026-05-05 11:35 38.58040 115.25987 32935 ft 448 kts 18°
2026-05-05 11:35 38.63261 115.30429 32938 ft 465 kts 37°
2026-05-05 11:36 38.67270 115.37061 32942 ft 483 kts 55°
2026-05-05 11:36 38.69807 115.45129 32683 ft 490 kts 62°
2026-05-05 11:36 38.71051 115.49103 32426 ft 475 kts 61°
2026-05-05 11:37 38.72364 115.52959 32248 ft 466 kts 56°
2026-05-05 11:37 38.73913 115.56531 32020 ft 463 kts 53°
2026-05-05 11:37 38.75533 115.60100 31769 ft 465 kts 54°
2026-05-05 11:37 38.77154 115.63649 31524 ft 468 kts 53°
2026-05-05 11:38 38.78801 115.67242 31266 ft 469 kts 54°
2026-05-05 11:38 38.80461 115.70852 31018 ft 471 kts 54°
2026-05-05 11:38 38.82127 115.74470 30759 ft 470 kts 54°
2026-05-05 11:38 38.83765 115.78033 30498 ft 470 kts 55°
2026-05-05 11:39 38.85442 115.81681 30141 ft 473 kts 55°
2026-05-05 11:39 38.87107 115.85296 29393 ft 482 kts 55°
2026-05-05 11:39 38.88825 115.89038 28615 ft 483 kts 56°
2026-05-05 11:39 38.90502 115.92699 27803 ft 474 kts 55°
2026-05-05 11:40 38.92147 115.96297 27083 ft 464 kts 56°
2026-05-05 11:40 38.93753 115.99804 26512 ft 460 kts 56°
2026-05-05 11:40 38.95369 116.03339 25786 ft 462 kts 55°
2026-05-05 11:40 38.97167 116.06736 25027 ft 459 kts 47°
2026-05-05 11:41 38.99361 116.09656 24548 ft 447 kts 36°
2026-05-05 11:41 39.01812 116.11970 24144 ft 440 kts 27°
2026-05-05 11:41 39.04536 116.13761 23296 ft 435 kts 18°
2026-05-05 11:41 39.07336 116.14896 22482 ft 421 kts
2026-05-05 11:42 39.10204 116.15391 21696 ft 408 kts 359°
2026-05-05 11:42 39.12992 116.15481 20920 ft 398 kts 356°
2026-05-05 11:42 39.15731 116.15366 20138 ft 390 kts 353°
2026-05-05 11:42 39.18376 116.15140 19376 ft 386 kts 352°
2026-05-05 11:43 39.21013 116.14844 18616 ft 379 kts 351°
2026-05-05 11:43 39.23648 116.14507 17846 ft 375 kts 351°
2026-05-05 11:43 39.26218 116.14150 17092 ft 370 kts 351°
2026-05-05 11:43 39.28754 116.13783 16366 ft 368 kts 350°
2026-05-05 11:44 39.31275 116.13409 15692 ft 362 kts 351°
2026-05-05 11:44 39.33744 116.13037 15134 ft 357 kts 350°
2026-05-05 11:44 39.36207 116.12660 14499 ft 360 kts 351°
2026-05-05 11:44 39.38721 116.12277 13824 ft 364 kts 351°
2026-05-05 11:45 39.41203 116.11897 13530 ft 355 kts 351°
2026-05-05 11:45 39.43599 116.11530 13435 ft 343 kts 350°
2026-05-05 11:45 39.45963 116.11166 12887 ft 340 kts 350°
2026-05-05 11:45 39.48307 116.10804 11976 ft 342 kts 350°
2026-05-05 11:46 39.50658 116.10442 11293 ft 341 kts 350°
2026-05-05 11:46 39.53010 116.10085 10719 ft 340 kts 350°
2026-05-05 11:46 39.55357 116.09725 10226 ft 338 kts 350°
2026-05-05 11:46 39.57612 116.09387 10187 ft 313 kts 350°
2026-05-05 11:47 39.59678 116.09072 10135 ft 292 kts 349°
2026-05-05 11:47 39.61664 116.08768 9970 ft 285 kts 349°
2026-05-05 11:47 39.63645 116.08463 9677 ft 283 kts 348°
2026-05-05 11:47 39.65586 116.08165 9423 ft 279 kts 349°
2026-05-05 11:48 39.69435 116.07573 8879 ft 281 kts 348°
2026-05-05 11:48 39.71382 116.07273 8626 ft 283 kts 348°
2026-05-05 11:48 39.73359 116.07276 8373 ft 291 kts 10°
2026-05-05 11:49 39.75220 116.08380 8085 ft 302 kts 37°
2026-05-05 11:49 39.76598 116.10471 7663 ft 307 kts 64°
2026-05-05 11:49 39.77170 116.13097 7251 ft 305 kts 88°
2026-05-05 11:49 39.77314 116.15836 6734 ft 304 kts 88°
2026-05-05 11:50 39.77517 116.18497 6548 ft 289 kts 88°
2026-05-05 11:50 39.77729 116.21047 6409 ft 276 kts 87°
2026-05-05 11:50 39.77936 116.23473 6204 ft 273 kts 88°
2026-05-05 11:50 39.78146 116.25950 5737 ft 280 kts 88°
2026-05-05 11:51 39.78366 116.28495 5283 ft 286 kts 89°
2026-05-05 11:51 39.78203 116.31010 4824 ft 279 kts 116°
2026-05-05 11:51 39.77213 116.33051 4562 ft 259 kts 144°
2026-05-05 11:51 39.75804 116.34428 4433 ft 245 kts 156°
2026-05-05 11:52 39.74248 116.35026 4293 ft 229 kts 176°
2026-05-05 11:52 39.72678 116.35311 4089 ft 224 kts 175°
2026-05-05 11:52 39.71158 116.35598 3835 ft 219 kts 176°
2026-05-05 11:52 39.69649 116.35862 3548 ft 217 kts 176°
2026-05-05 11:53 39.68164 116.36114 3265 ft 214 kts 176°
2026-05-05 11:53 39.66713 116.36354 2971 ft 203 kts 176°
2026-05-05 11:53 39.65356 116.36576 2686 ft 191 kts 176°
2026-05-05 11:53 39.64087 116.36781 2452 ft 175 kts 176°
2026-05-05 11:54 39.62948 116.36964 2304 ft 153 kts 176°
2026-05-05 11:54 39.61939 116.37125 2224 ft 148 kts 176°
2026-05-05 11:54 39.60896 116.37285 2011 ft 150 kts 175°
2026-05-05 11:54 39.59867 116.37447 1775 ft 150 kts 175°
2026-05-05 11:55 39.58830 116.37611 1541 ft 150 kts 175°
2026-05-05 11:55 39.57789 116.37775 1320 ft 151 kts 175°
2026-05-05 11:55 39.56745 116.37934 1090 ft 152 kts 175°
2026-05-05 11:55 39.55685 116.38089 847 ft 152 kts 175°
2026-05-05 11:56 39.54641 116.38273 657 ft 148 kts 174°
2026-05-05 11:56 39.53625 116.38437 466 ft 150 kts 175°
2026-05-05 11:56 39.52576 116.38605 283 ft 151 kts 175°
2026-05-05 11:56 39.51519 116.38767 115 ft 154 kts 175°
2026-05-05 11:57 39.50502 116.38927 94 ft 136 kts 175°
2026-05-05 11:57 39.49729 116.39047 93 ft 80 kts 172°
2026-05-05 11:57 39.49297 116.39116 93 ft 56 kts 174°
2026-05-05 11:57 39.49052 116.39154 93 ft 16 kts 170°
2026-05-05 11:58 39.48949 116.39172 93 ft 13 kts 172°
2026-05-05 11:58 39.48864 116.39187 93 ft 11 kts 172°
2026-05-05 11:58 39.48795 116.39210 93 ft 8 kts 143°
2026-05-05 11:58 39.48774 116.39260 93 ft 5 kts 98°
2026-05-05 11:59 39.48778 116.39321 93 ft 8 kts 83°
2026-05-05 11:59 39.48786 116.39403 93 ft 9 kts 83°
2026-05-05 11:59 39.48792 116.39474 93 ft 6 kts 83°
2026-05-05 11:59 39.48812 116.39521 93 ft 5 kts 37°
2026-05-05 12:00 39.48862 116.39531 93 ft 9 kts 352°
2026-05-05 12:00 39.48928 116.39520 93 ft 9 kts 353°
2026-05-05 12:00 39.48991 116.39530 93 ft 9 kts 32°
2026-05-05 12:00 39.49016 116.39597 93 ft 8 kts 80°
2026-05-05 12:01 39.49028 116.39698 93 ft 13 kts 81°
2026-05-05 12:01 39.49037 116.39806 93 ft 10 kts 85°
2026-05-05 12:01 39.49043 116.39891 93 ft 7 kts 81°
2026-05-05 12:01 39.49050 116.39951 93 ft 5 kts 81°
2026-05-05 12:02 39.49058 116.40021 93 ft 11 kts 82°
2026-05-05 12:02 39.49069 116.40127 93 ft 11 kts 82°
2026-05-05 12:02 39.49077 116.40215 93 ft 8 kts 83°
2026-05-05 12:02 39.49084 116.40299 93 ft 10 kts 78°
2026-05-05 12:03 39.49131 116.40372 93 ft 10 kts 18°
2026-05-05 12:03 39.49194 116.40366 93 ft 10 kts 349°
2026-05-05 12:03 39.49289 116.40345 93 ft 15 kts 353°
2026-05-05 12:03 39.49390 116.40328 93 ft 13 kts 352°
2026-05-05 12:04 39.49477 116.40314 93 ft 11 kts 353°
2026-05-05 12:04 39.49547 116.40303 93 ft 9 kts 353°
2026-05-05 12:04 39.49602 116.40294 93 ft 6 kts 352°
2026-05-05 12:04 39.49644 116.40287 93 ft 5 kts 352°
2026-05-05 12:05 39.49692 116.40279 93 ft 11 kts 353°
2026-05-05 12:05 39.49793 116.40265 93 ft 14 kts 353°
2026-05-05 12:05 39.49887 116.40250 93 ft 12 kts 353°
2026-05-05 12:05 39.49966 116.40241 93 ft 9 kts
2026-05-05 12:06 39.50023 116.40283 93 ft 10 kts 57°
2026-05-05 12:06 39.50036 116.40382 93 ft 12 kts 83°
2026-05-05 12:06 39.50046 116.40496 93 ft 12 kts 83°
2026-05-05 12:06 39.50054 116.40593 93 ft 9 kts 84°
2026-05-05 12:07 39.50061 116.40672 93 ft 9 kts 82°
2026-05-05 12:07 39.50071 116.40765 93 ft 9 kts 82°
2026-05-05 12:07 39.50079 116.40842 93 ft 7 kts 82°
2026-05-05 12:07 39.50093 116.40903 93 ft 7 kts 58°
2026-05-05 12:08 39.50124 116.40929 93 ft 4 kts
2026-05-05 12:08 39.50153 116.40928 93 ft 5 kts 354°
2026-05-05 12:08 39.50200 116.40920 93 ft 8 kts 353°
2026-05-05 12:08 39.50270 116.40929 93 ft 9 kts 30°
2026-05-05 12:09 39.50291 116.40990 93 ft 6 kts 86°
2026-05-05 12:09 39.50293 116.41041 93 ft 4 kts 86°
2026-05-05 12:09 39.50306 116.41084 93 ft 4 kts 49°
2026-05-05 12:09 39.50337 116.41105 93 ft 4 kts 15°
2026-05-05 12:10 39.50364 116.41112 93 ft 3 kts 10°
2026-05-05 12:10 39.50388 116.41117 93 ft 2 kts
2026-05-05 12:10 39.50395 116.41119 93 ft 0 kts